| time (UTC) | temp F | wind direction | speed knots | gust knots | rain 1hr in | rain 24hr in | rain mn in | humidity % | barometer mb |
| 20260504215004 | 74 | 263 | 0.9 | 4.3 | 0.00 | 0.00 | 0.00 | 33 | 1008.5 |
| 20260504214005 | 74 | 262 | 0.9 | 10.4 | 0.00 | 0.00 | 0.00 | 33 | 1008.6 |
| 20260504213004 | 75 | 246 | 1.7 | 8.7 | 0.00 | 0.00 | 0.00 | 32 | 1008.6 |
| 20260504212005 | 75 | 202 | 0.0 | 7.8 | 0.00 | 0.00 | 0.00 | 33 | 1008.6 |
| 20260504211005 | 75 | 222 | 0.0 | 1.7 | 0.00 | 0.00 | 0.00 | 33 | 1008.6 |
| 20260504210005 | 74 | 257 | 1.7 | 10.4 | 0.00 | 0.00 | 0.00 | 31 | 1008.6 |
| 20260504204004 | 75 | 243 | 0.0 | 1.7 | 0.00 | 0.00 | 0.00 | 32 | 1008.6 |
| 20260504203005 | 75 | 209 | 0.0 | 2.6 | 0.00 | 0.00 | 0.00 | 33 | 1008.8 |
| 20260504202005 | 74 | 187 | 0.0 | 2.6 | 0.00 | 0.00 | 0.00 | 32 | 1008.9 |
| 20260504194004 | 73 | 268 | 0.9 | 10.4 | 0.00 | 0.00 | 0.00 | 32 | 1009.6 |
| 20260504193004 | 72 | 236 | 0.9 | 13.0 | 0.00 | 0.00 | 0.00 | 32 | 1009.8 |
| 20260504192005 | 72 | 265 | 0.0 | 6.1 | 0.00 | 0.00 | 0.00 | 33 | 1009.9 |
| 20260504191005 | 72 | 276 | 0.9 | 11.3 | 0.00 | 0.00 | 0.00 | 32 | 1009.9 |
| 20260504190004 | 71 | 285 | 1.7 | 10.4 | 0.00 | 0.00 | 0.00 | 33 | 1010.1 |
| 20260504185005 | 72 | 268 | 0.9 | 11.3 | 0.00 | 0.00 | 0.00 | 33 | 1010.1 |
| 20260504184004 | 71 | 284 | 0.9 | 13.9 | 0.00 | 0.00 | 0.00 | 34 | 1010.2 |
| 20260504180005 | 71 | 288 | 0.0 | 10.4 | 0.00 | 0.00 | 0.00 | 33 | 1010.6 |
| 20260504175004 | 70 | 285 | 1.7 | 12.2 | 0.00 | 0.00 | 0.00 | 33 | 1010.7 |
| 20260504174005 | 69 | 287 | 0.9 | 6.1 | 0.00 | 0.00 | 0.00 | 33 | 1010.9 |
| 20260504173004 | 70 | 271 | 0.0 | 7.8 | 0.00 | 0.00 | 0.00 | 32 | 1011.1 |
| 20260504172005 | 69 | 269 | 1.7 | 10.4 | 0.00 | 0.00 | 0.00 | 32 | 1011.3 |
| 20260504171005 | 69 | 244 | 0.0 | 2.6 | 0.00 | 0.00 | 0.00 | 31 | 1011.5 |
| 20260504151004 | 65 | 281 | 0.0 | 8.7 | 0.00 | 0.00 | 0.00 | 43 | 1012.6 |
| 20260504141005 | 63 | 164 | 0.0 | 2.6 | 0.00 | 0.00 | 0.00 | 48 | 1012.9 |
| 20260504082004 | 44 | 255 | 0.0 | 0.0 | 0.00 | 0.00 | 0.00 | 81 | 1014.1 |
| 20260504081005 | 44 | 255 | 0.0 | 0.0 | 0.00 | 0.00 | 0.00 | 81 | 1014.1 |
| 20260504050004 | 45 | 190 | 0.0 | 0.0 | 0.00 | 0.00 | 0.00 | 73 | 1014.0 |
| 20260504043004 | 43 | 260 | 0.0 | 0.0 | 0.00 | 0.00 | 0.00 | 77 | 1013.9 |
| 20260504042004 | 43 | 260 | 0.0 | 0.0 | 0.00 | 0.00 | 0.00 | 78 | 1013.8 |
| 20260504041004 | 43 | 260 | 0.0 | 0.0 | 0.00 | 0.00 | 0.00 | 78 | 1013.7 |
| 20260504034004 | 44 | 260 | 0.0 | 0.0 | 0.00 | 0.00 | 0.00 | 76 | 1013.4 |
| 20260504033004 | 44 | 260 | 0.0 | 0.0 | 0.00 | 0.00 | 0.00 | 74 | 1013.4 |
| 20260504032005 | 44 | 260 | 0.0 | 0.0 | 0.00 | 0.00 | 0.00 | 74 | 1013.3 |
| 20260504031004 | 45 | 260 | 0.0 | 0.0 | 0.00 | 0.00 | 0.00 | 73 | 1013.3 |
| 20260504030004 | 45 | 260 | 0.0 | 0.0 | 0.00 | 0.00 | 0.00 | 72 | 1013.2 |
| 20260504024004 | 45 | 260 | 0.0 | 0.0 | 0.00 | 0.00 | 0.00 | 69 | 1013.2 |
| 20260504023004 | 46 | 260 | 0.0 | 0.0 | 0.00 | 0.00 | 0.00 | 68 | 1013.3 |
| 20260504021005 | 47 | 260 | 0.0 | 0.0 | 0.00 | 0.00 | 0.00 | 65 | 1013.3 |
| 20260504020004 | 47 | 260 | 0.0 | 0.0 | 0.00 | 0.00 | 0.00 | 63 | 1013.2 |
| 20260504015004 | 48 | 260 | 0.0 | 0.0 | 0.00 | 0.00 | 0.00 | 61 | 1013.2 |
| 20260504014004 | 48 | 260 | 0.0 | 0.0 | 0.00 | 0.00 | 0.00 | 61 | 1013.1 |
| 20260504013005 | 49 | 260 | 0.0 | 0.0 | 0.00 | 0.00 | 0.00 | 58 | 1013.0 |
| 20260504011004 | 50 | 260 | 0.0 | 0.0 | 0.00 | 0.00 | 0.00 | 55 | 1012.9 |
| 20260504010004 | 51 | 260 | 0.0 | 0.0 | 0.00 | 0.00 | 0.00 | 53 | 1012.8 |
| 20260504005004 | 52 | 260 | 0.0 | 0.0 | 0.00 | 0.00 | 0.00 | 51 | 1012.6 |
| 20260504004005 | 53 | 260 | 0.0 | 0.0 | 0.00 | 0.00 | 0.00 | 49 | 1012.5 |
| 20260504003004 | 54 | 260 | 0.0 | 0.0 | 0.00 | 0.00 | 0.00 | 46 | 1012.4 |
| 20260504002004 | 55 | 260 | 0.0 | 0.0 | 0.00 | 0.00 | 0.00 | 41 | 1012.3 |
| 20260504001004 | 57 | 260 | 0.0 | 0.0 | 0.00 | 0.00 | 0.00 | 39 | 1012.1 |
| 20260504000004 | 57 | 260 | 0.0 | 0.0 | 0.00 | 0.00 | 0.00 | 37 | 1012.0 |
| 20260503235004 | 58 | 283 | 0.0 | 0.0 | 0.00 | 0.00 | 0.00 | 35 | 1011.9 |
| 20260503234004 | 59 | 281 | 0.0 | 0.0 | 0.00 | 0.00 | 0.00 | 34 | 1011.9 |
| 20260503233004 | 60 | 269 | 0.0 | 0.0 | 0.00 | 0.00 | 0.00 | 34 | 1011.8 |
| 20260503232004 | 61 | 292 | 0.0 | 1.7 | 0.00 | 0.00 | 0.00 | 32 | 1011.9 |
| 20260503231004 | 61 | 290 | 0.0 | 0.9 | 0.00 | 0.00 | 0.00 | 31 | 1011.8 |
| 20260503230004 | 62 | 267 | 0.0 | 2.6 | 0.00 | 0.00 | 0.00 | 30 | 1011.7 |
| 20260503225004 | 62 | 290 | 0.0 | 2.6 | 0.00 | 0.00 | 0.00 | 32 | 1011.6 |
| 20260503224004 | 61 | 293 | 0.9 | 6.1 | 0.00 | 0.00 | 0.00 | 30 | 1011.7 |
| 20260503223004 | 62 | 298 | 0.0 | 2.6 | 0.00 | 0.00 | 0.00 | 30 | 1011.8 |
| 20260503222004 | 62 | 65 | 0.0 | 1.7 | 0.00 | 0.00 | 0.00 | 30 | 1011.7 |
| 20260503221004 | 61 | 310 | 0.0 | 7.8 | 0.00 | 0.00 | 0.00 | 30 | 1011.8 |